Weather History for St. Joseph, MO

Change the Weather History Date:

Saturday, February 8, 2014

  Actual Average Record
Temperature  
Mean Temperature 21 °F 30 °F  
Max Temperature 27 °F 40 °F 68 °F (1938)
Min Temperature 14 °F 20 °F -19 °F (1971)
Degree Days  
Heating Degree Days 44 35  
Month to date heating degree days 444 284  
Since 1 July heating degree days 4186 3667  
Cooling Degree Days 0 0  
Month to date cooling degree days 0 0  
Year to date cooling degree days 0 0  
Moisture  
Dew Point 14 °F    
Average Humidity 79    
Maximum Humidity 84    
Minimum Humidity 73    
Precipitation  
Precipitation 0.00 in 0.03 in 0.57 in (2001)
Month to date precipitation 0.14 0.23  
Year to date precipitation 0.22 0.79  
Sea Level Pressure  
Sea Level Pressure 30.18 in    
Wind  
Wind Speed 6 mph (SW)    
Max Wind Speed 15 mph    
Max Gust Speed 20 mph    
Visibility 8 miles    
Events      
T = Trace of Precipitation, MM = Missing Value Source: NWS Daily Summary

Daily Weather History Graph

Daily Weather History Graph

Search for Another Location

Airport:

Trip Planner

Search our weather history database for the weather conditions in past years. The results will help you decide how hot, cold, wet, or windy it might be!

Date:

Astronomy

Feb. 08, 2014 Rise Set
Actual Time 7:20 AM CST 5:47 PM CST
Civil Twilight 6:52 AM CST 6:15 PM CST
Nautical Twilight 6:20 AM CST 6:47 PM CST
Astronomical Twilight 5:49 AM CST 7:19 PM CST
Moon 12:42 PM CST (2/8) 2:33 AM CST (2/8)
Length of Visible Light 11h 23m
Length of Day
10h 27m
Waxing Gibbous, 69% of the Moon is Illuminated
Feb 8
Waxing Gibbous
Feb 14
Full
Feb 22
Last Quarter
Mar 1
New
Mar 8
First Quarter

Hourly Weather History & Observations

Time (CST) Temp. Windchill Dew Point Humidity Pressure Visibility Wind Dir Wind Speed Gust Speed Precip Events Conditions
12:53 AM 14.0 °F 6.5 °F 7.0 °F 74% 30.26 in 10.0 mi South 4.6 mph - N/A   Overcast
1:22 AM 14.0 °F 5.1 °F 7.0 °F 74% 30.21 in 10.0 mi SSE 5.8 mph - N/A   Overcast
1:53 AM 14.0 °F 6.5 °F 8.1 °F 77% 30.25 in 10.0 mi South 4.6 mph - N/A   Overcast
2:53 AM 14.0 °F 6.5 °F 8.1 °F 77% 30.23 in 10.0 mi South 4.6 mph - N/A   Overcast
3:53 AM 15.1 °F 7.7 °F 9.0 °F 77% 30.21 in 10.0 mi South 4.6 mph - N/A   Overcast
4:53 AM 15.1 °F 7.7 °F 10.0 °F 80% 30.19 in 10.0 mi South 4.6 mph - N/A   Overcast
5:02 AM 15.1 °F 6.4 °F 10.0 °F 80% 30.15 in 10.0 mi South 5.8 mph - N/A   Overcast
5:53 AM 16.0 °F 8.8 °F 10.0 °F 77% 30.21 in 10.0 mi South 4.6 mph - N/A   Overcast
6:53 AM 16.0 °F 5.3 °F 10.0 °F 77% 30.19 in 10.0 mi SSE 8.1 mph - N/A   Overcast
7:53 AM 16.0 °F 10.4 °F 10.0 °F 77% 30.19 in 10.0 mi SSW 3.5 mph - N/A   Overcast
8:53 AM 19.0 °F 11.1 °F 12.0 °F 74% 30.17 in 10.0 mi SW 5.8 mph - N/A   Overcast
9:53 AM 19.0 °F 13.9 °F 12.9 °F 77% 30.19 in 9.0 mi SSE 3.5 mph - N/A   Overcast
10:53 AM 21.0 °F 10.6 °F 15.1 °F 78% 30.18 in 9.0 mi SSW 9.2 mph - N/A   Overcast
11:53 AM 21.9 °F 11.0 °F 16.0 °F 78% 30.16 in 8.0 mi SSW 10.4 mph - N/A   Overcast
12:53 PM 24.1 °F 15.2 °F 18.0 °F 77% 30.14 in 7.0 mi SSW 8.1 mph - N/A   Overcast
1:53 PM 26.1 °F 16.8 °F 19.9 °F 78% 30.10 in 6.0 mi WSW 9.2 mph - N/A   Haze
2:53 PM 27.0 °F 16.7 °F 19.9 °F 75% 30.09 in 7.0 mi SW 11.5 mph - N/A   Overcast
3:53 PM 27.0 °F 18.0 °F 19.9 °F 75% 30.12 in 7.0 mi WSW 9.2 mph - N/A   Overcast
4:53 PM 26.1 °F 19.4 °F 19.9 °F 78% 30.13 in 6.0 mi West 5.8 mph - N/A   Haze
5:53 PM 26.1 °F 20.5 °F 19.9 °F 78% 30.14 in 6.0 mi WNW 4.6 mph - N/A   Haze
6:53 PM 25.0 °F 19.3 °F 19.9 °F 81% 30.16 in 7.0 mi NW 4.6 mph - N/A   Overcast
7:53 PM 25.0 °F 18.1 °F 19.9 °F 81% 30.17 in 7.0 mi North 5.8 mph - N/A   Overcast
8:53 PM 25.0 °F 20.7 °F 19.9 °F 81% 30.18 in 6.0 mi NNE 3.5 mph - N/A   Haze
9:53 PM 21.0 °F 14.6 °F 17.1 °F 85% 30.19 in 6.0 mi North 4.6 mph - N/A   Overcast
10:42 PM 21.9 °F - 18.0 °F 85% 30.16 in 6.0 mi Calm Calm - N/A   Scattered Clouds
10:53 PM 21.9 °F - 18.0 °F 85% 30.19 in 6.0 mi Calm Calm - N/A   Partly Cloudy
11:29 PM 15.1 °F 5.2 °F 12.9 °F 91% 30.18 in 4.0 mi NW 6.9 mph - N/A   Mostly Cloudy
11:53 PM 18.0 °F 12.7 °F 14.0 °F 84% 30.22 in 5.0 mi NNW 3.5 mph - N/A   Overcast